Fort Leonard Wood, MO

6:32 AM CST on November 18, 2017 (GMT -0600)
Waynesville Regional At Forney Field

Weather History for KTBN - August, 2012

Change the Weather History Date:

Friday, August 3, 2012

  Actual Average Record
Temperature  
Mean Temperature 84 °F -  
Max Temperature 99 °F 85 °F 99 °F (2011)
Min Temperature 71 °F 68 °F 64 °F (2017)
Cooling Degree Days 20    
Growing Degree Days 34 (Base 50)    
Moisture  
Dew Point 68 °F    
Average Humidity 59    
Maximum Humidity 100    
Minimum Humidity 31    
Precipitation  
Precipitation 0.00 in - - ()
Sea Level Pressure  
Sea Level Pressure 29.75 in    
Wind  
Wind Speed 2 mph (SSW)    
Max Wind Speed 8 mph    
Max Gust Speed -    
Visibility 10 miles    
Events      
Averages and records for this station are not official NWS values.
T = Trace of Precipitation, MM = Missing Value Source: NWS Daily Summary

Daily Weather History Graph

Daily Weather History Graph

Search for Another Location

Airport or City:

Trip Planner

Search our weather history database for the weather conditions in past years. The results will help you decide how hot, cold, wet, or windy it might be!

Date:

Astronomy

Aug. 03, 2012 Rise Set
Actual Time 6:14 AM CDT 8:14 PM CDT
Civil Twilight 5:45 AM CDT 8:43 PM CDT
Nautical Twilight 5:10 AM CDT 9:18 PM CDT
Astronomical Twilight 4:32 AM CDT 9:56 PM CDT
Moon 8:57 PM CDT (8/3) 7:54 AM CDT (8/3)
Length of Visible Light 14h 57m
Length of Day
14h 00m
Full, 97% of the Moon is Illuminated
Aug 3
Full
Aug 9
Last Quarter
Aug 17
New
Aug 24
First Quarter
Aug 31
Full

Hourly Weather History & Observations

Time (CDT) Temp. Heat Index Dew Point Humidity Pressure Visibility Wind Dir Wind Speed Gust Speed Precip Events Conditions
12:55 AM 80.6 °F 84.7 °F 72.1 °F 75% 29.72 in 10.0 mi Calm Calm - N/A   Clear
1:55 AM 75.9 °F - 72.0 °F 87% 29.71 in 10.0 mi Calm Calm - N/A   Clear
2:55 AM 73.9 °F - 71.6 °F 92% 29.70 in 10.0 mi Calm Calm - N/A   Clear
3:55 AM 74.3 °F - 71.8 °F 92% 29.70 in 10.0 mi Calm Calm - N/A   Clear
4:55 AM 72.1 °F - 71.2 °F 97% 29.72 in 10.0 mi South 4.6 mph - N/A   Clear
5:55 AM 71.2 °F - 71.2 °F 100% 29.73 in 10.0 mi Calm Calm - N/A   Clear
6:55 AM 72.9 °F - 71.4 °F 95% 29.75 in 10.0 mi Calm Calm - N/A   Clear
7:55 AM 75.7 °F - 72.1 °F 89% 29.77 in 10.0 mi NNW 3.5 mph - N/A   Clear
8:55 AM 81.3 °F 85.9 °F 72.3 °F 74% 29.78 in 10.0 mi NW 6.9 mph - N/A   Clear
9:55 AM 86.9 °F 93.3 °F 72.0 °F 61% 29.78 in 10.0 mi NNW 6.9 mph - N/A   Clear
10:55 AM 91.0 °F 96.6 °F 69.8 °F 50% 29.77 in 10.0 mi Variable 4.6 mph - N/A   Clear
11:55 AM 93.7 °F 98.2 °F 67.8 °F 43% 29.78 in 10.0 mi Calm Calm - N/A   Partly Cloudy
12:55 PM 95.9 °F 99.0 °F 65.7 °F 37% 29.77 in 10.0 mi Calm Calm - N/A   Scattered Clouds
1:55 PM 96.3 °F 99.1 °F 65.5 °F 36% 29.77 in 10.0 mi SW 5.8 mph - N/A   Mostly Cloudy
2:55 PM 98.6 °F 100.5 °F 62.8 °F 31% 29.76 in 10.0 mi WSW 8.1 mph - N/A   Clear
3:35 PM 96.8 °F 99.0 °F 64.4 °F 34% 29.75 in 10.0 mi Variable 3.5 mph - N/A   Light Drizzle
3:46 PM 95.0 °F 97.0 °F 64.4 °F 36% 29.76 in 10.0 mi West 4.6 mph - N/A   Mostly Cloudy
3:55 PM 94.5 °F 96.1 °F 64.0 °F 36% 29.75 in 10.0 mi Calm Calm - 0.00 in   Overcast
4:55 PM 96.6 °F 97.7 °F 62.4 °F 32% 29.74 in 10.0 mi SSE 3.5 mph - N/A   Partly Cloudy
5:55 PM 98.8 °F 100.8 °F 63.1 °F 31% 29.74 in 10.0 mi South 4.6 mph - N/A   Clear
6:55 PM 97.5 °F 98.7 °F 61.9 °F 31% 29.74 in 10.0 mi Calm Calm - N/A   Partly Cloudy
7:55 PM 91.4 °F 92.8 °F 64.2 °F 40% 29.75 in 10.0 mi Calm Calm - N/A   Mostly Cloudy
8:55 PM 86.0 °F 89.4 °F 68.4 °F 55% 29.75 in 10.0 mi Calm Calm - N/A   Overcast
9:55 PM 85.5 °F 87.9 °F 66.7 °F 53% 29.75 in 10.0 mi South 3.5 mph - N/A   Overcast
10:55 PM 83.5 °F 86.4 °F 67.8 °F 59% 29.75 in 10.0 mi SSE 5.8 mph - N/A   Mostly Cloudy
11:55 PM 82.6 °F 85.5 °F 68.0 °F 61% 29.75 in 10.0 mi SE 5.8 mph - N/A   Clear